Reflectivity
-20 -20 -20 -20 -20 -20 -15 -20 8 -20 -20 -20 -20 -20 -20 -20 -20 -20 -20 -20 -20 -20 -20 -20 -20 -20 -20 -20 -20 -20 -20 -20 -20 -17 -20 -20 -20 -20 -20 -20 -20 -20 -20 -20
-20 -20 -20 -20 -20 -20 -20 -20 1 -20 -20 -20 -20 -20 -20 -20 -20 -20 -20 -20 -20 -20 -20 -20 -20 -20 -20 -20 -20 -20 -20 -20 -20 -20 -20 -20 -20 -20 -20 -20 -20 -20 -20 -20
6 -20 -20 -20 -20 -20 -20 -20 -20 -5 -20 -20 -20 -20 -20 -20 -20 -20 -20 -20 -20 -20 -20 -20 -20 -20 -20 -20 -20 -20 -20 -20 -20 -20 -20 -20 -20 -20 -20 -20 -20 -20 -20 -20
-20 -20 -20 -20 -20 -20 -20 -20 -20 -20 -20 -20 -20 -20 -20 -20 -20 -20 -20 -20 -20 -20 -20 -20 -20 -20 -20 -20 -20 -20 -20 -20 -20 -20 -20 -20 -20 -20 -20 -20 -20 -20 -20 -20
-4 -20 -20 -20 -20 -20 -20 -20 -20 -20 -20 -20 -20 -20 -20 -20 -20 -20 -20 -20 -20 -20 -20 -20 -20 -20 -20 -20 -20 -20 -20 -20 -20 -20 -20 -20 -20 -20 -20 -20 -20 -20 -20 -20
-20 -20 -20 -5 -20 -20 -20 4 -20 -20 -20 -20 -20 -20 -20 -20 -20 -20 -20 -20 -20 -20 -20 -20 -20 -20 -20 -20 -20 -20 -20 -20 -20 -20 -20 -20 -20 -20 -20 -20 -20 -20 -20 -20
6 -5 -20 -20 -20 -20 -20 -13 -20 -20 -20 -20 -20 -20 -20 -20 -20 -20 -20 -20 -20 -20 -20 -20 -20 -20 -20 -20 -20 -20 -20 -20 -20 -20 -20 -20 -20 -20 -20 -20 -20 -20 -20 -20
-0 5 0 -20 -20 -20 -20 -20 -20 -20 -20 -20 -20 -20 -20 -20 -20 -20 -20 -20 -20 -20 -20 -20 -20 -20 -20 -20 -20 -20 -20 -20 -20 -20 -20 -20 -20 -20 -20 -20 -20 -20 -20 -20
-17 -4 -20 -20 -20 -20 -20 -20 -20 -20 -20 -20 -20 -20 -20 -20 -20 -20 -20 -20 -20 -20 -20 -20 -20 -20 -20 -20 -20 -20 -20 -20 -20 -20 -20 -20 -1 -17 -20 -20 -20 -20 -20 -20
-20 -20 -20 -20 -20 -20 -20 -20 -20 -20 -20 -20 -20 -20 -20 -20 -20 -20 -20 -20 -20 -20 -20 -20 -20 -20 -20 -20 -20 -20 -20 -20 -20 -20 -16 12 -4 -18 -20 -18 -20 -20 -20 -20
-20 -20 -20 -20 -20 -20 -20 -20 -20 -20 -20 -20 -20 -20 -20 -20 -20 -20 -20 -20 -20 -20 -20 -20 -20 -20 -20 -20 -20 -20 -12 -18 -20 -16 -20 -20 -11 -20 -20 -20 -20 -20 -20 -20
-20 -20 -20 -20 -20 -20 -20 -20 -20 -20 -20 -20 -17 -20 -20 -20 -20 -20 -20 -20 -20 -20 -8 -15 -19 -20 -16 23 5 19 24 23 -5 4 29 16 1 -18 -12 -20 -20 -20 -20 -20
-20 -20 -13 -17 -17 -20 -20 -20 -20 -16 -20 -20 -20 -20 -20 -20 -20 -20 -20 -20 -20 -10 9 24 -20 -20 -20 -20 -20 -15 18 21 15 22 17 24 3 -20 -20 -20 -19 -20 -20 -20
-20 -20 -20 -20 -20 -20 -20 -20 -0 -20 -20 -20 -20 -19 -20 -20 -20 -20 -20 -20 -20 -20 -20 -5 -20 -20 -20 -20 -20 -20 -13 19 7 26 24 18 27 7 -20 -20 -20 -20 -20 -20
-20 -20 -20 -20 -20 -20 -13 -20 -20 -11 -20 -18 -20 -4 -16 -20 -20 -20 -20 -20 -20 -20 -20 5 -11 -20 -20 -20 -20 -20 -20 -6 4 12 20 22 17 30 8 -16 1 9 6 2
-20 -20 -20 -20 -20 -20 -20 -20 -19 -20 2 -20 -16 -17 -20 -20 -20 -20 -20 -4 -7 -19 -18 -8 -20 -20 -20 -20 -20 -20 -20 -14 9 6 17 21 24 26 12 2 2 -4 -3 12
-20 -20 -20 -20 -20 -20 -20 -20 -20 -20 -20 -20 -20 -20 -19 -20 -20 -20 -20 -18 24 -5 -10 -4 -20 -20 -20 -20 -20 -20 -20 -20 -2 3 2 -0 1 -3 -5 -16 -19 -7 -9 -6
-20 -20 -20 -20 -20 -20 -15 -20 -20 -18 -20 -20 -20 -18 -5 -4 -11 -9 -10 -6 9 33 24 16 -20 -20 -20 -20 -20 -20 -20 -20 -20 -20 -16 -1 1 -0 4 -4 -6 -11 -12 -2
-20 -20 -20 -20 -20 -20 -20 -20 -20 -20 -20 -20 -16 -20 -14 12 3 -8 -2 19 31 30 23 4 -11 -10 -20 -20 -20 -20 -20 -20 -20 -16 -10 16 13 2 -4 -17 -20 -20 -12 -7
-20 -20 -20 -20 -20 -20 -20 -20 -20 -20 -20 -20 -20 -20 -4 -10 0 16 11 18 16 3 -12 -19 -20 -20 -20 -14 -2 -20 -20 -17 -7 -9 7 16 17 12 4 9 5 -10 -15 -15
-20 -20 -20 -20 -20 -20 -20 -20 -20 -18 -20 -20 -20 -20 -3 11 -20 -19 14 4 1 6 7 -4 -20 -20 -20 -10 8 -20 -20 -20 -9 -1 10 15 10 12 1 -10 -19 -20 -19 -20
-20 -20 -20 -20 -20 -20 -20 -20 -19 -8 -17 -20 -20 -20 -18 13 -5 -20 -13 15 20 9 13 8 -4 -8 -11 -19 -20 -20 -20 -20 -20 -20 -20 -15 -9 -15 -5 -1 -9 1 -20 -20
-20 -20 -20 -20 -20 -20 -20 -20 -20 -1 -15 -17 -20 -20 -20 13 15 -2 -12 -17 -3 -8 -16 -1 8 -18 -15 -20 -20 -20 -20 -20 -20 -20 -20 -20 -20 -20 -20 -20 -20 -20 -20 -20
-20 -20 -20 -20 -20 -20 -20 -20 -20 -12 -18 -11 -18 -17 -14 16 16 16 12 12 -3 4 11 5 -1 -16 -20 -20 -20 -20 -20 -20 -20 -20 -20 -20 -20 -20 -20 -20 -20 -20 -20 -3
-20 -20 -20 -20 -20 -20 -20 -20 -20 -12 -4 -14 -17 -18 -11 10 16 16 20 17 8 11 11 8 4 -4 -16 -20 -20 -20 -20 -20 -20 -20 -20 -20 -20 -20 -20 -20 -20 -20 -20 -20
-20 -20 -20 -20 -20 -20 -20 -20 -19 -12 8 -12 -17 -11 0 5 11 12 16 16 6 1 -5 -12 -15 -13 -20 -20 -20 -20 -20 -20 -17 -20 -20 -20 -20 -20 -20 -20 -20 -20 -20 -20
-20 -20 -20 -20 -11 -16 -20 -20 -20 -19 -14 -7 -6 4 -4 -2 9 12 7 2 8 10 2 -7 -18 -19 -17 -20 -20 -20 -20 -20 -20 -20 -20 -20 -20 -20 -20 -20 -20 -20 -20 -20
Wind_Speed
5 5 3 3 11 15 14 16 14 12 15 14 13 14 16 16 15 13 12 10 9 8 8 9 10 10 9 9 9 8 7 6 5 4 3 2 3 3 3 3 2 0 1 1
1 2 2 5 7 8 14 16 16 17 17 16 13 9 13 16 16 15 14 14 11 10 11 12 12 12 11 10 10 9 9 7 6 5 6 6 5 4 3 2 2 3 3 2
2 1 3 7 8 10 8 8 7 11 11 12 12 12 12 13 14 15 14 14 13 11 12 13 13 11 11 10 9 9 7 6 6 6 6 7 6 4 4 4 3 3 2 3
1 3 4 4 1 2 3 4 5 6 6 7 9 12 15 11 10 13 14 15 14 11 10 12 12 11 9 10 11 10 9 8 7 7 6 6 5 5 4 3 4 3 2 3
3 4 3 4 3 1 2 7 9 7 8 10 11 13 4 10 16 14 14 14 14 8 9 8 10 9 10 10 9 9 8 7 7 6 7 7 6 6 4 4 4 3 2 3
2 3 3 8 4 1 3 7 8 8 9 12 13 8 8 18 18 15 13 11 11 10 8 9 9 10 11 11 10 9 8 7 7 7 8 7 6 5 4 4 4 4 3 3
6 4 1 5 3 2 6 4 6 7 9 11 9 10 16 17 16 12 11 10 9 8 5 5 6 10 11 10 8 7 7 8 8 8 8 7 6 4 5 5 4 4 4 3
3 4 6 5 3 4 4 2 8 9 10 13 14 16 16 17 16 14 11 9 7 5 1 3 6 8 8 8 7 8 8 8 7 7 6 6 7 5 5 6 6 6 6 6
3 2 5 3 5 4 4 9 11 13 14 14 16 16 17 16 17 13 9 7 4 3 3 4 6 7 8 6 8 8 9 9 8 9 8 7 7 7 5 6 5 5 5 5
4 5 2 7 2 3 10 12 13 13 13 14 16 17 19 16 13 13 9 6 3 3 5 5 7 6 5 7 8 9 9 9 8 7 7 6 5 6 6 6 5 5 5 5
6 8 9 2 5 11 13 14 14 14 14 16 17 18 17 16 15 13 10 5 4 5 5 5 6 7 7 7 9 8 7 6 6 6 7 6 6 6 6 7 7 6 6 5
3 8 9 11 11 18 18 16 14 17 18 17 16 18 20 16 15 13 11 6 6 5 5 4 5 5 4 7 8 8 9 7 6 6 6 5 5 4 12 11 13 13 6 4
4 10 13 17 16 16 14 17 16 18 17 17 18 15 18 17 16 15 12 9 7 7 7 9 8 9 9 10 10 8 7 6 5 7 6 6 6 6 6 9 15 13 15 13
8 9 9 3 9 17 16 16 16 19 17 16 15 15 15 14 14 13 11 9 7 8 8 9 9 9 9 10 10 10 9 13 7 6 7 7 7 6 6 6 7 7 16 14
6 7 13 16 16 14 13 13 15 14 14 15 15 14 13 13 13 10 8 7 7 7 6 7 7 8 7 10 11 11 9 8 8 7 7 9 7 7 7 6 4 3 3 7
8 8 11 12 14 14 13 13 14 14 13 13 13 14 14 11 11 9 7 5 6 7 5 4 5 4 4 7 10 8 9 14 12 7 7 7 7 8 7 8 8 7 7 7
7 7 9 10 12 14 14 12 12 12 13 13 15 15 14 10 8 8 5 6 6 8 6 3 3 4 4 5 7 6 6 7 15 8 8 8 8 8 7 7 7 6 7 6
9 12 12 13 11 13 13 12 12 13 12 11 12 12 12 9 8 7 5 5 4 3 4 3 4 5 5 4 5 4 5 6 7 8 7 7 7 7 7 7 8 8 7 8
10 12 12 14 13 12 13 13 13 11 10 10 9 11 10 9 7 7 5 6 2 4 2 4 8 5 4 2 3 3 4 5 5 5 6 9 7 6 6 7 7 7 6 6
10 11 12 14 14 13 14 13 14 13 11 10 11 10 11 9 7 8 8 5 1 1 5 5 5 3 3 4 4 2 3 4 5 4 4 5 5 5 6 9 7 6 6 7
8 8 11 11 12 14 13 11 11 12 12 8 9 9 9 11 9 7 7 5 1 3 6 5 3 3 3 4 3 2 2 2 3 4 4 4 4 5 4 5 5 5 6 5
8 8 9 10 12 14 12 10 9 9 11 10 8 7 7 9 8 7 4 3 4 5 5 3 2 6 5 4 2 2 1 2 2 2 2 2 2 3 4 4 4 4 4 5
7 7 9 10 11 13 13 12 12 9 9 9 7 7 6 5 4 6 5 1 4 5 4 3 5 7 5 2 2 2 1 1 1 1 2 3 3 4 4 3 2 2 3 4
8 9 10 10 10 10 11 10 11 8 8 8 7 5 5 5 4 4 4 7 8 6 4 4 5 6 5 2 1 0 1 1 0 1 2 3 2 2 2 2 3 2 2 5
8 9 8 8 9 8 9 9 10 8 7 7 6 5 4 3 3 2 2 5 8 5 3 4 6 5 2 2 2 2 2 1 1 0 1 1 2 3 3 4 4 4 3 4
8 7 6 8 5 7 8 7 7 6 4 6 4 4 3 3 4 5 4 6 6 6 3 3 3 3 2 2 3 3 3 2 2 2 2 2 3 3 3 4 4 4 4 3
7 9 6 5 4 6 6 8 8 9 6 5 4 2 2 3 3 5 6 3 3 4 3 2 2 2 2 2 2 3 2 3 3 3 3 3 3 3 3 3 4 4 4 2
Wind_Direction
47 57 69 227 223 219 216 236 245 262 277 283 304 320 321 313 304 303 297 299 275 241 226 207 195 191 189 185 179 176 176 186 190 190 185 195 220 207 203 215 189 181 171 227
313 4 279 272 247 238 239 244 246 261 268 281 303 305 310 306 303 300 294 289 273 246 229 218 207 201 195 192 186 185 189 191 179 185 182 187 199 189 177 184 164 165 174 182
144 280 307 265 251 232 234 261 278 265 287 345 330 316 310 311 307 302 296 288 274 250 232 226 214 201 201 195 185 187 198 190 189 190 192 203 198 182 191 176 166 159 155 146
115 238 233 79 73 358 275 296 295 274 312 332 333 325 301 308 345 332 325 313 284 259 253 227 218 195 184 183 188 187 193 192 186 191 197 201 182 183 171 160 156 149 145 147
253 230 345 131 103 60 261 81 38 6 351 344 336 308 159 26 348 330 319 312 291 296 298 243 210 182 182 182 185 188 192 192 186 184 197 194 186 176 161 148 129 128 143 127
174 272 255 85 96 350 305 189 28 11 358 348 334 321 330 343 331 330 327 320 320 310 282 246 198 171 186 187 184 192 193 186 182 183 196 188 172 150 148 142 128 135 113 98
223 258 263 32 357 214 231 64 355 349 339 332 322 318 312 317 327 330 326 321 319 292 278 257 179 180 195 185 187 180 182 178 179 183 188 171 150 152 147 142 140 145 142 169
192 223 240 6 186 296 39 323 336 328 321 315 310 312 316 324 321 323 323 327 324 307 270 133 156 180 192 193 175 171 177 174 175 175 168 163 157 145 148 149 168 186 184 188
291 18 89 21 329 108 8 331 328 318 315 310 305 306 311 312 316 316 313 309 309 294 199 177 182 194 186 184 169 174 178 182 186 186 179 169 167 164 165 180 193 193 196 199
323 134 240 307 189 211 349 328 317 308 306 304 302 303 300 300 306 304 299 282 267 243 218 198 190 195 196 166 174 181 186 189 182 169 173 172 168 171 177 184 198 201 203 207
277 292 320 354 169 341 326 316 305 304 311 308 304 301 300 299 297 298 289 253 234 238 240 226 199 193 179 171 177 187 186 175 172 185 181 170 185 184 193 202 207 204 205 204
330 356 315 293 323 323 313 309 312 310 305 301 297 294 298 293 292 293 284 240 216 218 252 241 209 204 190 175 180 182 186 190 188 176 171 176 183 201 220 223 221 231 231 208
276 317 302 297 304 308 316 315 308 305 306 303 300 291 287 285 288 286 287 254 232 216 201 230 218 216 204 193 186 184 184 171 183 189 176 181 188 198 208 216 229 230 233 235
288 292 286 306 312 316 308 302 304 307 307 306 300 296 293 290 290 290 286 284 262 237 233 223 225 224 208 193 193 192 190 187 184 190 190 183 193 203 218 216 203 213 229 227
333 318 299 308 309 310 319 315 309 304 308 312 313 312 308 304 302 307 325 318 296 274 259 247 240 241 223 184 199 201 192 194 191 190 196 197 186 204 215 216 222 210 145 223
325 309 302 303 311 314 316 314 310 306 311 312 310 314 314 307 297 299 301 307 297 284 275 268 264 278 270 206 196 205 205 203 195 192 188 199 195 197 204 209 210 215 209 204
293 298 300 291 299 307 305 303 303 302 308 307 311 310 306 300 295 288 301 323 322 304 301 296 304 326 282 257 224 202 201 200 205 198 198 201 200 205 204 203 210 215 222 197
304 298 296 290 293 294 292 292 296 298 299 300 303 305 309 308 308 303 310 306 295 291 309 334 8 327 289 249 249 218 197 194 194 200 196 198 207 207 208 210 217 220 225 218
310 304 302 296 290 285 287 286 290 285 285 288 293 300 301 300 304 304 311 280 268 253 289 340 352 337 335 4 264 218 195 189 190 195 191 201 208 202 207 212 218 221 223 214
302 303 302 298 297 288 282 281 287 286 288 292 298 299 302 304 310 313 310 282 313 328 314 330 340 324 334 335 331 246 196 190 188 187 176 190 193 198 203 212 215 218 217 218
300 294 291 295 296 296 281 277 279 279 284 280 285 289 299 301 291 286 283 284 180 331 308 311 332 328 319 315 322 282 226 183 182 186 187 192 192 199 200 208 218 221 227 222
292 293 293 295 296 295 289 283 274 270 269 271 264 276 286 292 296 288 261 281 321 322 302 308 311 319 314 322 308 285 229 207 190 170 180 182 182 200 212 210 216 217 221 222
287 293 296 295 297 297 298 293 285 267 259 257 259 257 250 270 290 294 292 215 297 303 305 304 319 341 5 31 3 339 1 347 283 212 224 229 236 240 244 237 220 213 229 231
300 298 291 294 296 293 296 302 299 265 250 253 251 248 259 268 262 240 277 291 296 318 316 312 337 360 10 12 360 333 335 343 188 243 254 258 245 223 232 239 248 233 227 256
277 283 282 280 287 295 306 299 293 274 256 248 245 249 233 242 254 312 299 298 297 301 310 321 341 357 7 5 1 14 10 14 358 269 264 246 263 260 258 261 255 254 249 252
277 279 285 277 282 298 296 297 294 294 268 253 227 217 219 238 258 267 266 280 301 311 316 317 331 346 349 354 9 11 6 359 2 1 340 319 285 280 273 266 264 257 259 248
261 260 265 270 12 315 303 301 297 297 292 260 235 189 205 224 253 275 271 257 267 286 298 299 311 318 328 351 2 19 9 10 2 341 323 310 303 301 294 290 285 271 259 241